Tekamah, NE

4:57 AM CST on January 18, 2018 (GMT -0600)
Tekamah

Weather History for KTQE - October, 2010

Change the Weather History Date:

Monday, October 18, 2010

  Actual Average Record
Temperature  
Mean Temperature 52 °F -  
Max Temperature 64 °F 62 °F 87 °F (2003)
Min Temperature 37 °F 39 °F 24 °F (1948)
Degree Days  
Heating Degree Days 14    
Growing Degree Days 2 (Base 50)    
Moisture  
Dew Point 31 °F    
Average Humidity 53    
Maximum Humidity 82    
Minimum Humidity 26    
Precipitation  
Precipitation 0.00 in - - ()
Sea Level Pressure  
Sea Level Pressure 30.07 in    
Wind  
Wind Speed 7 mph (NNW)    
Max Wind Speed 12 mph    
Max Gust Speed -    
Visibility 10 miles    
Events      
Averages and records for this station are not official NWS values.
T = Trace of Precipitation, MM = Missing Value Source: NWS Daily Summary

Daily Weather History Graph

Daily Weather History Graph

Search for Another Location

Airport or City:

Trip Planner

Search our weather history database for the weather conditions in past years. The results will help you decide how hot, cold, wet, or windy it might be!

Date:

Astronomy

Oct. 18, 2010 Rise Set
Actual Time 7:40 AM CDT 6:38 PM CDT
Civil Twilight 7:12 AM CDT 7:06 PM CDT
Nautical Twilight 6:39 AM CDT 7:39 PM CDT
Astronomical Twilight 6:07 AM CDT 8:11 PM CDT
Moon 4:26 PM CDT 3:26 AM CDT
Length of Visible Light 11h 54m
Length of Day
10h 58m
Waxing Gibbous, 83% of the Moon is Illuminated
Oct 18
Waxing Gibbous
Oct 22
Full
Oct 30
Last Quarter
Nov 5
New
Nov 13
First Quarter

Hourly Weather History & Observations

Time (CDT) Temp. Windchill Dew Point Humidity Pressure Visibility Wind Dir Wind Speed Gust Speed Precip Events Conditions
12:54 AM 48.9 °F - 30.9 °F 50% 30.04 in 10.0 mi NNW 6.9 mph - N/A   Clear
1:54 AM 50.0 °F - 30.9 °F 48% 30.03 in 10.0 mi North 9.2 mph - N/A   Scattered Clouds
2:54 AM 48.0 °F - 30.0 °F 50% 30.04 in 10.0 mi North 9.2 mph - N/A   Clear
3:54 AM 41.0 °F 35.8 °F 30.0 °F 65% 30.03 in 10.0 mi North 8.1 mph - N/A   Clear
4:54 AM 43.0 °F 37.2 °F 30.0 °F 60% 30.05 in 10.0 mi North 10.4 mph - N/A   Clear
5:54 AM 41.0 °F 34.3 °F 30.0 °F 65% 30.08 in 10.0 mi North 11.5 mph - N/A   Clear
6:54 AM 39.0 °F 32.3 °F 30.0 °F 70% 30.10 in 10.0 mi North 10.4 mph - N/A   Clear
7:54 AM 39.0 °F 32.8 °F 30.9 °F 73% 30.11 in 10.0 mi North 9.2 mph - N/A   Clear
8:54 AM 43.0 °F 37.7 °F 33.1 °F 68% 30.12 in 10.0 mi North 9.2 mph - N/A   Clear
9:54 AM 48.0 °F - 35.1 °F 61% 30.13 in 10.0 mi North 6.9 mph - N/A   Clear
11:54 AM 54.0 °F - 34.0 °F 47% 30.12 in 10.0 mi Calm Calm - N/A   Clear
12:54 PM 59.0 °F - 34.0 °F 39% 30.10 in 10.0 mi Variable 4.6 mph - N/A   Clear
1:54 PM 62.1 °F - 30.9 °F 31% 30.08 in 10.0 mi Variable 3.5 mph - N/A   Clear
2:54 PM 64.0 °F - 30.0 °F 28% 30.06 in 10.0 mi NNW 5.8 mph - N/A   Clear
3:54 PM 63.0 °F - 27.0 °F 26% 30.06 in 10.0 mi NNW 5.8 mph - N/A   Clear
4:54 PM 64.0 °F - 28.9 °F 27% 30.04 in 10.0 mi Calm Calm - N/A   Clear
5:54 PM 60.1 °F - 30.0 °F 32% 30.05 in 10.0 mi West 3.5 mph - N/A   Clear
6:54 PM 53.1 °F - 30.0 °F 41% 30.06 in 10.0 mi Calm Calm - N/A   Clear
7:54 PM 46.0 °F 44.8 °F 32.0 °F 58% 30.07 in 10.0 mi WSW 3.5 mph - N/A   Partly Cloudy
8:54 PM 42.1 °F - 30.9 °F 65% 30.07 in 5.0 mi Calm Calm - N/A   Haze
9:54 PM 39.9 °F - 28.0 °F 63% 30.09 in 3.0 mi Calm Calm - N/A   Haze
10:54 PM 39.0 °F 36.8 °F 32.0 °F 76% 30.08 in 10.0 mi NW 3.5 mph - N/A   Clear
11:54 PM 37.0 °F - 32.0 °F 82% 30.08 in 10.0 mi Calm Calm - N/A   Clear